Weather History for Ithaca, NY

Change the Weather History Date:

Monday, November 29, 2010

  Actual Average Record
Temperature  
Mean Temperature 34 °F -  
Max Temperature 43 °F 45 °F 71 °F (1990)
Min Temperature 24 °F 29 °F 7 °F (2013)
Degree Days  
Heating Degree Days 32    
Moisture  
Dew Point 24 °F    
Average Humidity 68    
Maximum Humidity 88    
Minimum Humidity 46    
Precipitation  
Precipitation 0.00 in - - ()
Sea Level Pressure  
Sea Level Pressure 30.43 in    
Wind  
Wind Speed 7 mph (SE)    
Max Wind Speed 16 mph    
Max Gust Speed 24 mph    
Visibility 10 miles    
Events      
Averages and records for this station are not official NWS values.
T = Trace of Precipitation, MM = Missing Value Source: NWS Daily Summary

Daily Weather History Graph

Daily Weather History Graph

Search for Another Location

Airport:

Trip Planner

Search our weather history database for the weather conditions in past years. The results will help you decide how hot, cold, wet, or windy it might be!

Date:

Astronomy

Nov. 29, 2010 Rise Set
Actual Time 7:13 AM EST 4:34 PM EST
Civil Twilight 6:42 AM EST 5:05 PM EST
Nautical Twilight 6:07 AM EST 5:40 PM EST
Astronomical Twilight 5:33 AM EST 6:14 PM EST
Moon 12:09 AM EST (11/29) 12:41 PM EST (11/29)
Length of Visible Light 10h 23m
Length of Day
9h 20m
Last Quarter, 40% of the Moon is Illuminated
Nov 29
Last Quarter
Dec 5
New
Dec 13
First Quarter
Dec 21
Full
Dec 27
Last Quarter

Hourly Weather History & Observations

Time (EST) Temp. Windchill Dew Point Humidity Pressure Visibility Wind Dir Wind Speed Gust Speed Precip Events Conditions
12:56 AM 25.2 °F 19.5 °F 22.1 °F 88% 30.43 in 10.0 mi East 4.6 mph - N/A   Clear
1:56 AM 25.2 °F 20.9 °F 22.1 °F 88% 30.45 in 10.0 mi East 3.5 mph - N/A   Clear
2:56 AM 24.1 °F - 21.0 °F 88% 30.46 in 10.0 mi Calm Calm - N/A   Clear
3:56 AM 27.1 °F 21.8 °F 22.1 °F 81% 30.46 in 10.0 mi ESE 4.6 mph - N/A   Clear
4:56 AM 27.1 °F 23.2 °F 22.1 °F 81% 30.47 in 10.0 mi East 3.5 mph - N/A   Clear
5:56 AM 27.1 °F 20.7 °F 22.1 °F 81% 30.47 in 10.0 mi ESE 5.8 mph - N/A   Clear
6:15 AM 28.4 °F 22.2 °F 21.2 °F 74% 30.42 in 10.0 mi ESE 5.8 mph - N/A   Clear
6:56 AM 27.1 °F 23.2 °F 21.0 °F 78% 30.48 in 10.0 mi ESE 3.5 mph - N/A   Clear
7:56 AM 30.0 °F 24.1 °F 23.0 °F 75% 30.51 in 10.0 mi SE 5.8 mph - N/A   Clear
8:56 AM 34.0 °F 26.0 °F 25.2 °F 70% 30.50 in 10.0 mi SE 10.4 mph - N/A   Clear
9:56 AM 37.9 °F 30.5 °F 25.2 °F 60% 30.50 in 10.0 mi South 11.5 mph - N/A   Clear
11:56 AM 41.9 °F 36.3 °F 25.2 °F 52% 30.46 in 10.0 mi SSE 9.2 mph - N/A   Clear
12:56 PM 43.0 °F 36.0 °F 24.1 °F 47% 30.43 in 10.0 mi SSE 13.8 mph 20.7 mph N/A   Clear
1:56 PM 43.9 °F 37.2 °F 24.1 °F 46% 30.41 in 10.0 mi SSE 13.8 mph 18.4 mph N/A   Clear
2:56 PM 43.9 °F 36.5 °F 24.1 °F 46% 30.41 in 10.0 mi South 16.1 mph - N/A   Clear
3:56 PM 41.9 °F 35.0 °F 25.2 °F 52% 30.40 in 10.0 mi SSE 12.7 mph - N/A   Clear
4:56 PM 39.9 °F 33.4 °F 25.2 °F 56% 30.41 in 10.0 mi SSE 10.4 mph - N/A   Clear
5:56 PM 38.8 °F 32.1 °F 25.2 °F 58% 30.40 in 10.0 mi SE 10.4 mph - N/A   Clear
7:56 PM 36.9 °F 28.7 °F 24.1 °F 60% 30.38 in 10.0 mi SSE 12.7 mph - N/A   Clear
8:56 PM 34.9 °F 27.7 °F 25.2 °F 68% 30.38 in 10.0 mi SSE 9.2 mph 16.1 mph N/A   Clear
9:56 PM 34.9 °F 27.7 °F 25.2 °F 68% 30.38 in 10.0 mi SSE 9.2 mph - N/A   Clear
10:56 PM 34.9 °F 26.6 °F 25.2 °F 68% 30.37 in 10.0 mi SSE 11.5 mph - N/A   Clear
11:56 PM 34.9 °F 25.3 °F 26.1 °F 70% 30.34 in 10.0 mi SSE 15.0 mph 24.2 mph N/A   Clear